Time,TemperatureF,DewpointF,PressureIn,WindDirection,WindDirectionDegrees,WindSpeedMPH,WindSpeedGustMPH,Humidity,HourlyPrecipIn,Conditions,Clouds,dailyrainin,SoftwareType,DateUTC
2013-02-22 00:10:00,-999.0,-99.9,30.05,North,-999,-999.0,-999.0,-999,-99.99,,,0.00,weatherlink.com 1.10,2013-02-22 05:10:00,
2013-02-22 00:25:00,-999.0,-99.9,30.04,North,-999,-999.0,-999.0,-999,-99.99,,,0.00,weatherlink.com 1.10,2013-02-22 05:25:00,
2013-02-22 00:39:00,-999.0,-99.9,30.04,North,-999,-999.0,-999.0,-999,-99.99,,,0.00,weatherlink.com 1.10,2013-02-22 05:39:00,
2013-02-22 00:54:00,-999.0,-99.9,30.04,North,-999,-999.0,-999.0,-999,-99.99,,,0.00,weatherlink.com 1.10,2013-02-22 05:54:00,
2013-02-22 01:09:00,-999.0,-99.9,30.03,North,-999,-999.0,-999.0,-999,-99.99,,,0.00,weatherlink.com 1.10,2013-02-22 06:09:00,
2013-02-22 01:24:00,66.3,65.0,30.03,SE,145,0.0,-999.0,95,-99.99,,,0.00,weatherlink.com 1.10,2013-02-22 06:24:00,
2013-02-22 01:39:00,66.8,65.0,30.02,SE,145,0.0,-999.0,95,-99.99,,,0.00,weatherlink.com 1.10,2013-02-22 06:39:00,
2013-02-22 01:54:00,67.2,66.0,30.02,SE,145,0.0,-999.0,95,-99.99,,,0.00,weatherlink.com 1.10,2013-02-22 06:54:00,
2013-02-22 02:10:00,67.4,66.0,30.02,SSE,150,0.0,-999.0,95,-99.99,,,0.00,weatherlink.com 1.10,2013-02-22 07:10:00,
2013-02-22 02:24:00,67.4,66.0,30.01,SSE,153,0.0,-999.0,95,-99.99,,,0.00,weatherlink.com 1.10,2013-02-22 07:24:00,
2013-02-22 02:39:00,67.5,66.0,30.01,SSE,153,0.0,-999.0,95,-99.99,,,0.00,weatherlink.com 1.10,2013-02-22 07:39:00,
2013-02-22 02:54:00,67.6,67.0,30.02,SSE,152,0.0,-999.0,96,-99.99,,,0.00,weatherlink.com 1.10,2013-02-22 07:54:00,
2013-02-22 03:09:00,67.6,67.0,30.02,SSE,152,0.0,-999.0,96,-99.99,,,0.00,weatherlink.com 1.10,2013-02-22 08:09:00,
2013-02-22 03:24:00,66.8,65.0,30.01,SSE,152,0.0,-999.0,95,-99.99,,,0.00,weatherlink.com 1.10,2013-02-22 08:24:00,
2013-02-22 03:40:00,66.4,65.0,30.01,SSE,152,0.0,-999.0,95,-99.99,,,0.00,weatherlink.com 1.10,2013-02-22 08:40:00,
2013-02-22 03:55:00,66.0,65.0,30.01,SSE,152,0.0,-999.0,95,-99.99,,,0.00,weatherlink.com 1.10,2013-02-22 08:55:00,
2013-02-22 04:10:00,65.4,64.0,30.01,SSE,152,0.0,-999.0,95,-99.99,,,0.00,weatherlink.com 1.10,2013-02-22 09:10:00,
2013-02-22 04:24:00,65.0,64.0,30.02,SSE,152,0.0,-999.0,95,-99.99,,,0.00,weatherlink.com 1.10,2013-02-22 09:24:00,
2013-02-22 04:39:00,65.0,64.0,30.02,SSE,152,0.0,-999.0,96,-99.99,,,0.00,weatherlink.com 1.10,2013-02-22 09:39:00,
2013-02-22 04:54:00,65.2,64.0,30.02,SSE,152,0.0,-999.0,96,-99.99,,,0.00,weatherlink.com 1.10,2013-02-22 09:54:00,
2013-02-22 05:09:00,65.4,64.0,30.02,SSE,152,0.0,-999.0,96,-99.99,,,0.00,weatherlink.com 1.10,2013-02-22 10:09:00,
2013-02-22 05:24:00,65.2,64.0,30.03,SSE,152,0.0,-999.0,96,-99.99,,,0.00,weatherlink.com 1.10,2013-02-22 10:24:00,
2013-02-22 05:39:00,65.1,64.0,30.03,SSE,152,0.0,-999.0,96,-99.99,,,0.00,weatherlink.com 1.10,2013-02-22 10:39:00,
2013-02-22 05:54:00,65.1,64.0,30.04,SSE,152,0.0,-999.0,96,-99.99,,,0.00,weatherlink.com 1.10,2013-02-22 10:54:00,
2013-02-22 06:10:00,65.1,64.0,30.04,SSE,152,0.0,-999.0,96,-99.99,,,0.01,weatherlink.com 1.10,2013-02-22 11:10:00,
2013-02-22 06:24:00,65.2,64.0,30.05,SSE,152,0.0,-999.0,96,-99.99,,,0.01,weatherlink.com 1.10,2013-02-22 11:24:00,
2013-02-22 06:39:00,65.3,64.0,30.05,SSE,152,0.0,-999.0,96,-99.99,,,0.01,weatherlink.com 1.10,2013-02-22 11:39:00,
2013-02-22 06:55:00,65.2,64.0,30.06,NW,325,0.0,-999.0,96,-99.99,,,0.01,weatherlink.com 1.10,2013-02-22 11:55:00,
2013-02-22 07:09:00,65.4,65.0,30.06,NW,325,0.0,-999.0,97,-99.99,,,0.01,weatherlink.com 1.10,2013-02-22 12:09:00,
2013-02-22 07:24:00,65.9,65.0,30.07,NNW,327,0.0,-999.0,97,-99.99,,,0.01,weatherlink.com 1.10,2013-02-22 12:24:00,
2013-02-22 07:39:00,66.8,66.0,30.07,NNW,327,0.0,-999.0,97,-99.99,,,0.01,weatherlink.com 1.10,2013-02-22 12:39:00,
2013-02-22 07:54:00,67.8,67.0,30.07,ENE,65,0.0,-999.0,97,-99.99,,,0.01,weatherlink.com 1.10,2013-02-22 12:54:00,
2013-02-22 08:09:00,68.9,68.0,30.08,SE,129,0.0,-999.0,97,-99.99,,,0.01,weatherlink.com 1.10,2013-02-22 13:09:00,
2013-02-22 08:24:00,70.3,69.0,30.08,SSE,148,4.0,-999.0,96,-99.99,,,0.01,weatherlink.com 1.10,2013-02-22 13:24:00,
2013-02-22 08:39:00,72.0,71.0,30.08,ESE,109,0.0,-999.0,95,-99.99,,,0.01,weatherlink.com 1.10,2013-02-22 13:39:00,
2013-02-22 08:55:00,73.6,71.0,30.09,SSE,155,0.0,-999.0,91,-99.99,,,0.01,weatherlink.com 1.10,2013-02-22 13:55:00,
2013-02-22 09:09:00,75.2,72.0,30.09,SE,132,2.0,-999.0,89,-99.99,,,0.01,weatherlink.com 1.10,2013-02-22 14:09:00,
2013-02-22 09:25:00,76.2,72.0,30.09,ESE,121,1.0,-999.0,86,-99.99,,,0.01,weatherlink.com 1.10,2013-02-22 14:25:00,
2013-02-22 09:39:00,77.3,72.0,30.09,SE,140,1.0,-999.0,84,-99.99,,,0.01,weatherlink.com 1.10,2013-02-22 14:39:00,
2013-02-22 09:54:00,77.5,72.0,30.09,SSE,159,0.0,-999.0,83,-99.99,,,0.01,weatherlink.com 1.10,2013-02-22 14:54:00,
2013-02-22 10:09:00,78.7,72.0,30.09,SSE,155,1.0,-999.0,81,-99.99,,,0.01,weatherlink.com 1.10,2013-02-22 15:09:00,
2013-02-22 10:24:00,78.7,72.0,30.09,SE,141,2.0,-999.0,79,-99.99,,,0.01,weatherlink.com 1.10,2013-02-22 15:24:00,
2013-02-22 10:39:00,79.1,72.0,30.09,SE,132,7.0,-999.0,79,-99.99,,,0.01,weatherlink.com 1.10,2013-02-22 15:39:00,
2013-02-22 10:54:00,80.0,72.0,30.09,SSE,153,4.0,-999.0,77,-99.99,,,0.01,weatherlink.com 1.10,2013-02-22 15:54:00,
2013-02-22 11:09:00,80.4,72.0,30.09,SE,126,7.0,-999.0,76,-99.99,,,0.01,weatherlink.com 1.10,2013-02-22 16:09:00,
2013-02-22 11:24:00,80.9,72.0,30.09,SSE,157,0.0,-999.0,75,-99.99,,,0.01,weatherlink.com 1.10,2013-02-22 16:24:00,
2013-02-22 11:39:00,80.8,72.0,30.08,SE,135,0.0,-999.0,74,-99.99,,,0.01,weatherlink.com 1.10,2013-02-22 16:39:00,
2013-02-22 11:54:00,80.9,72.0,30.08,SE,144,4.0,-999.0,74,-99.99,,,0.01,weatherlink.com 1.10,2013-02-22 16:54:00,
2013-02-22 12:09:00,81.4,72.0,30.07,SSW,198,0.0,-999.0,74,-99.99,,,0.01,weatherlink.com 1.10,2013-02-22 17:09:00,
2013-02-22 12:24:00,81.5,73.0,30.06,SE,128,2.0,-999.0,74,-99.99,,,0.01,weatherlink.com 1.10,2013-02-22 17:24:00,
2013-02-22 12:40:00,82.0,72.0,30.06,ESE,122,6.0,-999.0,72,-99.99,,,0.01,weatherlink.com 1.10,2013-02-22 17:40:00,
2013-02-22 12:54:00,82.7,72.0,30.05,ESE,107,6.0,-999.0,71,-99.99,,,0.01,weatherlink.com 1.10,2013-02-22 17:54:00,
2013-02-22 13:09:00,83.1,72.0,30.05,SE,129,4.0,-999.0,69,-99.99,,,0.01,weatherlink.com 1.10,2013-02-22 18:09:00,
2013-02-22 13:24:00,83.5,72.0,30.04,SW,225,1.0,-999.0,69,-99.99,,,0.01,weatherlink.com 1.10,2013-02-22 18:24:00,
2013-02-22 13:40:00,83.7,72.0,30.04,SW,219,3.0,-999.0,68,-99.99,,,0.01,weatherlink.com 1.10,2013-02-22 18:40:00,
2013-02-22 13:54:00,83.5,72.0,30.03,SSE,162,0.0,-999.0,68,-99.99,,,0.01,weatherlink.com 1.10,2013-02-22 18:54:00,
2013-02-22 14:10:00,84.5,72.0,30.03,SSW,192,0.0,-999.0,67,-99.99,,,0.01,weatherlink.com 1.10,2013-02-22 19:10:00,
2013-02-22 14:24:00,84.9,72.0,30.02,WSW,246,1.0,-999.0,65,-99.99,,,0.01,weatherlink.com 1.10,2013-02-22 19:24:00,
2013-02-22 14:39:00,85.0,72.0,30.02,WSW,240,0.0,-999.0,66,-99.99,,,0.01,weatherlink.com 1.10,2013-02-22 19:39:00,
2013-02-22 14:54:00,84.4,72.0,30.02,South,185,0.0,-999.0,67,-99.99,,,0.01,weatherlink.com 1.10,2013-02-22 19:54:00,
2013-02-22 15:09:00,84.1,72.0,30.02,WSW,248,0.0,-999.0,67,-99.99,,,0.01,weatherlink.com 1.10,2013-02-22 20:09:00,
2013-02-22 15:24:00,84.2,72.0,30.02,ENE,71,3.0,-999.0,67,-99.99,,,0.01,weatherlink.com 1.10,2013-02-22 20:24:00,
2013-02-22 15:39:00,84.6,73.0,30.01,WSW,242,0.0,-999.0,68,-99.99,,,0.01,weatherlink.com 1.10,2013-02-22 20:39:00,
2013-02-22 15:54:00,83.9,72.0,30.01,SW,233,2.0,-999.0,68,-99.99,,,0.01,weatherlink.com 1.10,2013-02-22 20:54:00,
2013-02-22 16:09:00,82.7,72.0,30.01,SW,219,1.0,-999.0,70,-99.99,,,0.01,weatherlink.com 1.10,2013-02-22 21:09:00,
2013-02-22 16:25:00,82.6,72.0,30.01,WSW,240,0.0,-999.0,71,-99.99,,,0.01,weatherlink.com 1.10,2013-02-22 21:25:00,
2013-02-22 16:40:00,82.3,72.0,30.01,WSW,242,0.0,-999.0,71,-99.99,,,0.01,weatherlink.com 1.10,2013-02-22 21:40:00,
2013-02-22 16:54:00,80.9,71.0,30.01,South,182,1.0,-999.0,72,-99.99,,,0.01,weatherlink.com 1.10,2013-02-22 21:54:00,
2013-02-22 17:09:00,79.7,71.0,30.01,ENE,59,0.0,-999.0,74,-99.99,,,0.01,weatherlink.com 1.10,2013-02-22 22:09:00,
2013-02-22 17:24:00,77.8,70.0,30.01,SW,234,3.0,-999.0,78,-99.99,,,0.01,weatherlink.com 1.10,2013-02-22 22:24:00,
2013-02-22 17:40:00,76.7,70.0,30.02,SE,144,1.0,-999.0,79,-99.99,,,0.01,weatherlink.com 1.10,2013-02-22 22:40:00,
2013-02-22 17:54:00,76.0,70.0,30.02,SW,220,7.0,-999.0,81,-99.99,,,0.01,weatherlink.com 1.10,2013-02-22 22:54:00,
2013-02-22 18:09:00,75.3,70.0,30.02,SW,234,3.0,-999.0,82,-99.99,,,0.01,weatherlink.com 1.10,2013-02-22 23:09:00,
2013-02-22 18:24:00,74.7,70.0,30.02,SSW,192,0.0,-999.0,84,-99.99,,,0.01,weatherlink.com 1.10,2013-02-22 23:24:00,
2013-02-22 18:39:00,74.1,70.0,30.02,WSW,255,3.0,-999.0,86,-99.99,,,0.01,weatherlink.com 1.10,2013-02-22 23:39:00,
2013-02-22 18:54:00,73.7,70.0,30.02,South,171,1.0,-999.0,87,-99.99,,,0.01,weatherlink.com 1.10,2013-02-22 23:54:00,
2013-02-22 19:09:00,73.4,69.0,30.02,SSE,158,1.0,-999.0,87,-99.99,,,0.01,weatherlink.com 1.10,2013-02-23 00:09:00,
2013-02-22 19:24:00,73.1,69.0,30.03,SW,219,1.0,-999.0,88,-99.99,,,0.01,weatherlink.com 1.10,2013-02-23 00:24:00,
2013-02-22 19:39:00,73.1,69.0,30.03,SE,137,0.0,-999.0,88,-99.99,,,0.01,weatherlink.com 1.10,2013-02-23 00:39:00,
2013-02-22 19:54:00,73.1,69.0,30.04,East,101,4.0,-999.0,87,-99.99,,,0.01,weatherlink.com 1.10,2013-02-23 00:54:00,
2013-02-22 20:10:00,73.1,69.0,30.04,SSE,163,0.0,-999.0,87,-99.99,,,0.01,weatherlink.com 1.10,2013-02-23 01:10:00,
2013-02-22 20:24:00,72.9,69.0,30.04,SSE,157,4.0,-999.0,88,-99.99,,,0.01,weatherlink.com 1.10,2013-02-23 01:24:00,
2013-02-22 20:40:00,72.6,69.0,30.05,SE,142,0.0,-999.0,89,-99.99,,,0.01,weatherlink.com 1.10,2013-02-23 01:40:00,
2013-02-22 20:54:00,72.5,69.0,30.05,SE,138,0.0,-999.0,89,-99.99,,,0.01,weatherlink.com 1.10,2013-02-23 01:54:00,
2013-02-22 21:09:00,72.5,69.0,30.05,SSE,153,0.0,-999.0,89,-99.99,,,0.01,weatherlink.com 1.10,2013-02-23 02:09:00,
2013-02-22 21:25:00,72.3,69.0,30.06,SE,136,0.0,-999.0,90,-99.99,,,0.01,weatherlink.com 1.10,2013-02-23 02:25:00,
2013-02-22 21:39:00,72.1,69.0,30.06,SE,146,0.0,-999.0,91,-99.99,,,0.01,weatherlink.com 1.10,2013-02-23 02:39:00,
2013-02-22 21:55:00,72.1,69.0,30.06,SE,140,0.0,-999.0,91,-99.99,,,0.01,weatherlink.com 1.10,2013-02-23 02:55:00,
2013-02-22 22:09:00,72.1,70.0,30.06,SE,124,0.0,-999.0,92,-99.99,,,0.01,weatherlink.com 1.10,2013-02-23 03:09:00,
2013-02-22 22:24:00,72.0,70.0,30.06,SE,127,0.0,-999.0,92,-99.99,,,0.01,weatherlink.com 1.10,2013-02-23 03:24:00,
2013-02-22 22:40:00,71.8,69.0,30.06,SE,128,0.0,-999.0,92,-99.99,,,0.01,weatherlink.com 1.10,2013-02-23 03:40:00,
2013-02-22 22:54:00,71.6,69.0,30.06,SE,129,0.0,-999.0,92,-99.99,,,0.01,weatherlink.com 1.10,2013-02-23 03:54:00,
2013-02-22 23:09:00,71.5,69.0,30.05,SSE,148,0.0,-999.0,93,-99.99,,,0.01,weatherlink.com 1.10,2013-02-23 04:09:00,
2013-02-22 23:24:00,71.7,70.0,30.05,SSE,150,0.0,-999.0,93,-99.99,,,0.01,weatherlink.com 1.10,2013-02-23 04:24:00,
2013-02-22 23:40:00,71.7,70.0,30.04,ESE,115,2.0,-999.0,94,-99.99,,,0.01,weatherlink.com 1.10,2013-02-23 04:40:00,
2013-02-22 23:55:00,71.7,70.0,30.04,SE,132,0.0,-999.0,94,-99.99,,,0.01,weatherlink.com 1.10,2013-02-23 04:55:00,